Location: Marcé
(47.5801°N, 0.3280°W)
Time: 12:24:33
(UTC+01:00)

Vanguard 3 - Pass Details

Date: 02 December 2021
Orbit: 508 x 3260 km, 33.3° (Epoch: 17 January)

Event Time Altitude Azimuth Distance (km) Brightness Sun altitude
Rises 07:45:32 0° 257° (WSW) 7,197 11.5 -7.4°
Reaches altitude 10° 07:50:54 10° 252° (WSW) 6,045 11.2 -6.6°
Maximum altitude 08:07:22 45° 188° (S) 3,062 10.3 -4.1°
Drops below altitude 10° 08:18:03 10° 121° (ESE) 4,009 12.9 -2.5°
Sets 08:20:50 0° 115° (ESE) 4,675 13.9 -2.1°
